Overview Statistics Trail Chart Weather Telemetry Raw packets
 

This is the latest recevied weather packets stored in our database for station/object WW6Q. If no packets are shown the sender has not sent any weather packets the latest 10 day(s).

<< 64 65 66 67 68 69 70 >>
Time Temp. Humidity Pressure Rain* Wind** Luminosity Snow
1788176385 20.56° C 95% 1016.4 hPa 0 mm - 26 W/m² -
1788176084 20.56° C 96% 1016.4 hPa 0 mm - 21 W/m² -
1788175780 20.56° C 96% 1016.5 hPa 0 mm - 15 W/m² -
1788175480 20° C 97% 1016.3 hPa 0 mm - 11 W/m² -
1788175175 20° C 97% 1016.4 hPa 0 mm - 9 W/m² -
1788174871 20° C 97% 1016.5 hPa 0 mm - 7 W/m² -
1788174567 20° C 96% 1016.6 hPa 0 mm - 4 W/m² -
1788174261 20.56° C 96% 1016.4 hPa 0 mm - 3 W/m² -
1788173960 20.56° C 95% 1016.7 hPa 0 mm - 1 W/m² -
1788173656 20.56° C 95% 1016.8 hPa 0 mm - 1 W/m² -
1788173351 20.56° C 95% 1016.5 hPa 0 mm - 0 W/m² -
1788173047 20.56° C 95% 1016.5 hPa 0 mm - 0 W/m² -
1788172742 20.56° C 95% 1016.4 hPa 0 mm - 0 W/m² -
1788172449 20.56° C 95% 1016.6 hPa 0 mm - 0 W/m² -
1788172133 20.56° C 95% 1016.5 hPa 0 mm - 0 W/m² -
1788171833 21.11° C 94% 1016.3 hPa 0 mm - 0 W/m² -
1788171528 21.11° C 94% 1016.4 hPa 0 mm - 0 W/m² -
1788171228 20.56° C 95% 1016.3 hPa 0 mm - 0 W/m² -
1788170925 20.56° C 95% 1016.4 hPa 0 mm - 0 W/m² -
1788170621 20.56° C 96% 1016.5 hPa 0 mm - 0 W/m² -
1788170320 20.56° C 96% 1016.4 hPa 0 mm - 0 W/m² -
1788170019 21.11° C 94% 1016.5 hPa 0 mm - 0 W/m² -
1788169715 21.11° C 93% 1016.4 hPa 0 mm - 0 W/m² -
1788169410 21.67° C 93% 1016.5 hPa 0 mm - 0 W/m² -
1788169106 21.67° C 93% 1016.5 hPa 0 mm - 0 W/m² -

* Rain latest hour (hover to see other rain measurements)
** Current wind speed in m/s (hover to see current wind gust speed)